Location: Central Coast NSW, Australia
(33.2407°S, 151.4316°E)
Time: 08:10:13
(UTC+11:00)

ISS - Pass Details

Date: 01 February 2019
Orbit: 403 x 411 km, 51.6° (Epoch: 22 February)

Event Time Altitude Azimuth Distance (km) Brightness Sun altitude
Exits shadow 03:19:38 13° 122° (ESE) 1,345 -0.5 -30.4°
Drops below altitude 10° 03:20:01 10° 124° (ESE) 1,494 -0.2 -30.4°
Sets 03:22:09 0° 129° (SE) 2,360 1.2 -30.1°
